Time,TemperatureF,DewpointF,PressureIn,WindDirection,WindDirectionDegrees,WindSpeedMPH,WindSpeedGustMPH,Humidity,HourlyPrecipIn,Conditions,Clouds,dailyrainin,SolarRadiationWatts/m^2,SoftwareType,DateUTC
2013-01-25 00:02:00,10.0,6.0,-100.00,ESE,108,4.0,7.0,82,0.00,,,0.00,0.000000,,2013-01-25 06:02:00,
2013-01-25 00:11:00,10.0,6.0,-100.00,ESE,108,4.0,7.0,82,0.00,,,0.00,0.000000,,2013-01-25 06:11:00,
2013-01-25 00:32:00,10.0,6.0,-100.00,East,84,3.0,6.0,84,0.00,,,0.00,0.000000,,2013-01-25 06:32:00,
2013-01-25 00:42:00,10.0,6.0,-100.00,East,84,3.0,6.0,84,0.00,,,0.00,0.000000,,2013-01-25 06:42:00,
2013-01-25 00:52:00,10.0,6.0,-100.00,East,84,3.0,6.0,84,0.00,,,0.00,0.000000,,2013-01-25 06:52:00,
2013-01-25 01:02:00,10.0,6.0,-100.00,East,84,3.0,6.0,84,0.00,,,0.00,0.000000,,2013-01-25 07:02:00,
2013-01-25 01:11:00,10.0,6.0,-100.00,East,84,3.0,6.0,84,0.00,,,0.00,0.000000,,2013-01-25 07:11:00,
2013-01-25 01:32:00,11.0,7.0,-100.00,ESE,107,2.0,4.0,85,0.00,,,0.00,0.000000,,2013-01-25 07:32:00,
2013-01-25 01:42:00,11.0,7.0,-100.00,ESE,107,2.0,4.0,85,0.00,,,0.00,0.000000,,2013-01-25 07:42:00,
2013-01-25 01:52:00,11.0,7.0,-100.00,ESE,107,2.0,4.0,85,0.00,,,0.00,0.000000,,2013-01-25 07:52:00,
2013-01-25 02:02:00,11.0,7.0,-100.00,ESE,107,2.0,4.0,85,0.00,,,0.00,0.000000,,2013-01-25 08:02:00,
2013-01-25 02:11:00,11.0,7.0,-100.00,ESE,107,2.0,4.0,85,0.00,,,0.00,0.000000,,2013-01-25 08:11:00,
2013-01-25 02:32:00,11.0,8.0,-100.00,East,79,2.0,4.0,88,0.00,,,0.00,0.000000,,2013-01-25 08:32:00,
2013-01-25 02:42:00,11.0,8.0,-100.00,East,79,2.0,4.0,88,0.00,,,0.00,0.000000,,2013-01-25 08:42:00,
2013-01-25 02:52:00,11.0,8.0,-100.00,East,79,2.0,4.0,88,0.00,,,0.00,0.000000,,2013-01-25 08:52:00,
2013-01-25 03:02:00,11.0,8.0,-100.00,East,79,2.0,4.0,88,0.00,,,0.00,0.000000,,2013-01-25 09:02:00,
2013-01-25 03:11:00,11.0,8.0,-100.00,East,79,2.0,4.0,88,0.00,,,0.00,0.000000,,2013-01-25 09:11:00,
2013-01-25 03:12:00,13.0,10.0,-100.00,ESE,123,3.0,7.0,87,0.00,,,0.00,0.000000,,2013-01-25 09:12:00,
2013-01-25 03:32:00,13.0,10.0,-100.00,ESE,123,3.0,7.0,87,0.00,,,0.00,0.000000,,2013-01-25 09:32:00,
2013-01-25 03:42:00,13.0,10.0,-100.00,ESE,123,3.0,7.0,87,0.00,,,0.00,0.000000,,2013-01-25 09:42:00,
2013-01-25 03:52:00,13.0,10.0,-100.00,ESE,123,3.0,7.0,87,0.00,,,0.00,0.000000,,2013-01-25 09:52:00,
2013-01-25 04:02:00,13.0,10.0,-100.00,ESE,123,3.0,7.0,87,0.00,,,0.00,0.000000,,2013-01-25 10:02:00,
2013-01-25 04:42:00,14.0,12.0,-100.00,South,175,4.0,8.0,90,0.00,,,0.00,0.000000,,2013-01-25 10:42:00,
2013-01-25 04:52:00,14.0,12.0,-100.00,South,175,4.0,8.0,90,0.00,,,0.00,0.000000,,2013-01-25 10:52:00,
2013-01-25 05:02:00,14.0,12.0,-100.00,South,175,4.0,8.0,90,0.00,,,0.00,0.000000,,2013-01-25 11:02:00,
2013-01-25 05:11:00,14.0,12.0,-100.00,South,175,4.0,8.0,90,0.00,,,0.00,0.000000,,2013-01-25 11:11:00,
2013-01-25 05:33:00,14.0,12.0,-100.00,SSE,167,5.0,10.0,92,0.00,,,0.00,0.000000,,2013-01-25 11:33:00,
2013-01-25 05:42:00,14.0,12.0,-100.00,SSE,167,5.0,10.0,92,0.00,,,0.00,0.000000,,2013-01-25 11:42:00,
2013-01-25 05:52:00,14.0,12.0,-100.00,SSE,167,5.0,10.0,92,0.00,,,0.00,0.000000,,2013-01-25 11:52:00,
2013-01-25 06:02:00,14.0,12.0,-100.00,SSE,167,5.0,10.0,92,0.00,,,0.00,0.000000,,2013-01-25 12:02:00,
2013-01-25 06:11:00,14.0,12.0,-100.00,SSE,167,5.0,10.0,92,0.00,,,0.00,0.000000,,2013-01-25 12:11:00,
2013-01-25 06:33:00,14.0,12.0,-100.00,South,178,4.0,10.0,92,0.01,,,0.01,0.000000,,2013-01-25 12:33:00,
2013-01-25 06:42:00,14.0,12.0,-100.00,South,178,4.0,10.0,92,0.01,,,0.01,0.000000,,2013-01-25 12:42:00,
2013-01-25 06:53:00,14.0,12.0,-100.00,South,178,4.0,10.0,92,0.01,,,0.01,0.000000,,2013-01-25 12:53:00,
2013-01-25 07:02:00,14.0,12.0,-100.00,South,178,4.0,10.0,92,0.01,,,0.01,0.000000,,2013-01-25 13:02:00,
2013-01-25 07:11:00,14.0,12.0,-100.00,South,178,4.0,10.0,92,0.01,,,0.01,0.000000,,2013-01-25 13:11:00,
2013-01-25 07:12:00,15.0,13.0,-100.00,South,185,5.0,10.0,91,0.00,,,-99.99,0.000000,,2013-01-25 13:12:00,
2013-01-25 07:33:00,15.0,13.0,-100.00,South,185,5.0,10.0,91,0.00,,,-99.99,0.000000,,2013-01-25 13:33:00,
2013-01-25 07:43:00,15.0,13.0,-100.00,South,185,5.0,10.0,91,0.00,,,-99.99,0.000000,,2013-01-25 13:43:00,
2013-01-25 07:53:00,15.0,13.0,-100.00,South,185,5.0,10.0,91,0.00,,,-99.99,0.000000,,2013-01-25 13:53:00,
2013-01-25 08:03:00,15.0,13.0,-100.00,South,185,5.0,10.0,91,0.00,,,-99.99,0.000000,,2013-01-25 14:03:00,
2013-01-25 08:12:00,15.0,13.0,-100.00,South,188,5.0,9.0,90,0.00,,,0.01,11.000000,,2013-01-25 14:12:00,
2013-01-25 08:33:00,15.0,13.0,-100.00,South,188,5.0,9.0,90,0.00,,,0.01,11.000000,,2013-01-25 14:33:00,
2013-01-25 08:42:00,15.0,13.0,-100.00,South,188,5.0,9.0,90,0.00,,,0.01,11.000000,,2013-01-25 14:42:00,
2013-01-25 08:53:00,15.0,13.0,-100.00,South,188,5.0,9.0,90,0.00,,,0.01,11.000000,,2013-01-25 14:53:00,
2013-01-25 09:02:00,15.0,13.0,-100.00,South,188,5.0,9.0,90,0.00,,,0.01,11.000000,,2013-01-25 15:02:00,
2013-01-25 09:12:00,16.0,13.0,-100.00,SSW,196,7.0,10.0,89,0.00,,,0.01,33.000000,,2013-01-25 15:12:00,
2013-01-25 09:33:00,16.0,13.0,-100.00,SSW,196,7.0,10.0,89,0.00,,,0.01,33.000000,,2013-01-25 15:33:00,
2013-01-25 09:43:00,16.0,13.0,-100.00,SSW,196,7.0,10.0,89,0.00,,,0.01,33.000000,,2013-01-25 15:43:00,
2013-01-25 09:53:00,16.0,13.0,-100.00,SSW,196,7.0,10.0,89,0.00,,,0.01,33.000000,,2013-01-25 15:53:00,
2013-01-25 10:03:00,16.0,13.0,-100.00,SSW,196,7.0,10.0,89,0.00,,,0.01,33.000000,,2013-01-25 16:03:00,
2013-01-25 10:12:00,18.0,15.0,-100.00,SSW,202,6.0,11.0,86,0.00,,,0.01,79.000000,,2013-01-25 16:12:00,
2013-01-25 10:43:00,18.0,15.0,-100.00,SSW,202,6.0,11.0,86,0.00,,,0.01,79.000000,,2013-01-25 16:43:00,
2013-01-25 10:53:00,18.0,15.0,-100.00,SSW,202,6.0,11.0,86,0.00,,,0.01,79.000000,,2013-01-25 16:53:00,
2013-01-25 11:02:00,18.0,15.0,-100.00,SSW,202,6.0,11.0,86,0.00,,,0.01,79.000000,,2013-01-25 17:02:00,
2013-01-25 11:12:00,19.0,14.0,-100.00,SSW,208,7.0,13.0,80,0.00,,,0.01,105.000000,,2013-01-25 17:12:00,
2013-01-25 11:43:00,19.0,14.0,-100.00,SSW,208,7.0,13.0,80,0.00,,,0.01,105.000000,,2013-01-25 17:43:00,
2013-01-25 11:53:00,19.0,14.0,-100.00,SSW,208,7.0,13.0,80,0.00,,,0.01,105.000000,,2013-01-25 17:53:00,
2013-01-25 12:03:00,19.0,14.0,-100.00,SSW,208,7.0,13.0,80,0.00,,,0.01,105.000000,,2013-01-25 18:03:00,
2013-01-25 12:12:00,20.0,15.0,-100.00,SSW,204,6.0,12.0,80,0.00,,,0.01,101.000000,,2013-01-25 18:12:00,
2013-01-25 12:43:00,20.0,15.0,-100.00,SSW,204,6.0,12.0,80,0.00,,,0.01,101.000000,,2013-01-25 18:43:00,
2013-01-25 12:52:00,20.0,15.0,-100.00,SSW,204,6.0,12.0,80,0.00,,,0.01,101.000000,,2013-01-25 18:52:00,
2013-01-25 13:03:00,20.0,15.0,-100.00,SSW,204,6.0,12.0,80,0.00,,,0.01,101.000000,,2013-01-25 19:03:00,
2013-01-25 13:12:00,22.0,15.0,-100.00,WSW,252,6.0,11.0,73,0.00,,,0.01,137.000000,,2013-01-25 19:12:00,
2013-01-25 13:42:00,22.0,15.0,-100.00,WSW,252,6.0,11.0,73,0.00,,,0.01,137.000000,,2013-01-25 19:42:00,
2013-01-25 13:53:00,22.0,15.0,-100.00,WSW,252,6.0,11.0,73,0.00,,,0.01,137.000000,,2013-01-25 19:53:00,
2013-01-25 14:03:00,22.0,15.0,-100.00,WSW,252,6.0,11.0,73,0.00,,,0.01,137.000000,,2013-01-25 20:03:00,
2013-01-25 14:12:00,21.0,14.0,-100.00,West,275,7.0,16.0,74,0.00,,,0.01,130.000000,,2013-01-25 20:12:00,
2013-01-25 14:43:00,21.0,14.0,-100.00,West,275,7.0,16.0,74,0.00,,,0.01,130.000000,,2013-01-25 20:43:00,
2013-01-25 14:53:00,21.0,14.0,-100.00,West,275,7.0,16.0,74,0.00,,,0.01,130.000000,,2013-01-25 20:53:00,
2013-01-25 15:02:00,21.0,14.0,-100.00,West,275,7.0,16.0,74,0.00,,,0.01,130.000000,,2013-01-25 21:02:00,
2013-01-25 15:43:00,21.0,13.0,-100.00,WNW,287,9.0,16.0,71,0.00,,,0.01,125.000000,,2013-01-25 21:43:00,
2013-01-25 15:52:00,21.0,13.0,-100.00,WNW,287,9.0,16.0,71,0.00,,,0.01,125.000000,,2013-01-25 21:52:00,
2013-01-25 16:03:00,21.0,13.0,-100.00,WNW,287,9.0,16.0,71,0.00,,,0.01,125.000000,,2013-01-25 22:03:00,
2013-01-25 16:11:00,21.0,13.0,-100.00,WNW,287,9.0,16.0,71,0.00,,,0.01,125.000000,,2013-01-25 22:11:00,
2013-01-25 16:12:00,20.0,14.0,-100.00,NW,305,9.0,15.0,76,0.00,,,0.01,64.000000,,2013-01-25 22:12:00,
2013-01-25 16:42:00,20.0,14.0,-100.00,NW,305,9.0,15.0,76,0.00,,,0.01,64.000000,,2013-01-25 22:42:00,
2013-01-25 16:53:00,20.0,14.0,-100.00,NW,305,9.0,15.0,76,0.00,,,0.01,64.000000,,2013-01-25 22:53:00,
2013-01-25 17:02:00,20.0,14.0,-100.00,NW,305,9.0,15.0,76,0.00,,,0.01,64.000000,,2013-01-25 23:02:00,
2013-01-25 17:42:00,19.0,14.0,-100.00,NW,307,8.0,15.0,79,0.00,,,0.01,13.000000,,2013-01-25 23:42:00,
2013-01-25 17:53:00,19.0,14.0,-100.00,NW,307,8.0,15.0,79,0.00,,,0.01,13.000000,,2013-01-25 23:53:00,
2013-01-25 18:02:00,19.0,14.0,-100.00,NW,307,8.0,15.0,79,0.00,,,0.01,13.000000,,2013-01-26 00:02:00,
2013-01-25 18:11:00,19.0,14.0,-100.00,NW,307,8.0,15.0,79,0.00,,,0.01,13.000000,,2013-01-26 00:11:00,
2013-01-25 18:42:00,19.0,13.0,-100.00,NW,307,7.0,11.0,76,0.00,,,0.01,0.000000,,2013-01-26 00:42:00,
2013-01-25 18:53:00,19.0,13.0,-100.00,NW,307,7.0,11.0,76,0.00,,,0.01,0.000000,,2013-01-26 00:53:00,
2013-01-25 19:02:00,19.0,13.0,-100.00,NW,307,7.0,11.0,76,0.00,,,0.01,0.000000,,2013-01-26 01:02:00,
2013-01-25 19:11:00,19.0,13.0,-100.00,NW,307,7.0,11.0,76,0.00,,,0.01,0.000000,,2013-01-26 01:11:00,
2013-01-25 19:32:00,18.0,9.0,-100.00,NW,310,8.0,16.0,67,0.00,,,0.01,0.000000,,2013-01-26 01:32:00,
2013-01-25 19:42:00,18.0,9.0,-100.00,NW,310,8.0,16.0,67,0.00,,,0.01,0.000000,,2013-01-26 01:42:00,
2013-01-25 19:52:00,18.0,9.0,-100.00,NW,310,8.0,16.0,67,0.00,,,0.01,0.000000,,2013-01-26 01:52:00,
2013-01-25 20:01:00,18.0,9.0,-100.00,NW,310,8.0,16.0,67,0.00,,,0.01,0.000000,,2013-01-26 02:01:00,
2013-01-25 20:11:00,18.0,9.0,-100.00,NW,310,8.0,16.0,67,0.00,,,0.01,0.000000,,2013-01-26 02:11:00,
2013-01-25 20:42:00,16.0,10.0,-100.00,NW,308,6.0,12.0,76,0.00,,,0.01,0.000000,,2013-01-26 02:42:00,
2013-01-25 20:52:00,16.0,10.0,-100.00,NW,308,6.0,12.0,76,0.00,,,0.01,0.000000,,2013-01-26 02:52:00,
2013-01-25 21:02:00,16.0,10.0,-100.00,NW,308,6.0,12.0,76,0.00,,,0.01,0.000000,,2013-01-26 03:02:00,
2013-01-25 21:11:00,16.0,10.0,-100.00,NW,308,6.0,12.0,76,0.00,,,0.01,0.000000,,2013-01-26 03:11:00,
2013-01-25 21:12:00,15.0,10.0,-100.00,NW,310,6.0,11.0,79,0.00,,,0.01,0.000000,,2013-01-26 03:12:00,
2013-01-25 21:32:00,15.0,10.0,-100.00,NW,310,6.0,11.0,79,0.00,,,0.01,0.000000,,2013-01-26 03:32:00,
2013-01-25 21:43:00,15.0,10.0,-100.00,NW,310,6.0,11.0,79,0.00,,,0.01,0.000000,,2013-01-26 03:43:00,
2013-01-25 21:52:00,15.0,10.0,-100.00,NW,310,6.0,11.0,79,0.00,,,0.01,0.000000,,2013-01-26 03:52:00,
2013-01-25 22:02:00,15.0,10.0,-100.00,NW,310,6.0,11.0,79,0.00,,,0.01,0.000000,,2013-01-26 04:02:00,
2013-01-25 22:12:00,13.0,8.0,-100.00,WNW,297,5.0,10.0,79,0.00,,,0.01,0.000000,,2013-01-26 04:12:00,
2013-01-25 22:32:00,13.0,8.0,-100.00,WNW,297,5.0,10.0,79,0.00,,,0.01,0.000000,,2013-01-26 04:32:00,
2013-01-25 22:43:00,13.0,8.0,-100.00,WNW,297,5.0,10.0,79,0.00,,,0.01,0.000000,,2013-01-26 04:43:00,
2013-01-25 22:52:00,13.0,8.0,-100.00,WNW,297,5.0,10.0,79,0.00,,,0.01,0.000000,,2013-01-26 04:52:00,
2013-01-25 23:03:00,13.0,8.0,-100.00,WNW,297,5.0,10.0,79,0.00,,,0.01,0.000000,,2013-01-26 05:03:00,
2013-01-25 23:12:00,11.0,6.0,-100.00,WNW,299,4.0,10.0,79,0.00,,,0.01,0.000000,,2013-01-26 05:12:00,
2013-01-25 23:33:00,11.0,6.0,-100.00,WNW,299,4.0,10.0,79,0.00,,,0.01,0.000000,,2013-01-26 05:33:00,
2013-01-25 23:42:00,11.0,6.0,-100.00,WNW,299,4.0,10.0,79,0.00,,,0.01,0.000000,,2013-01-26 05:42:00,
2013-01-25 23:52:00,11.0,6.0,-100.00,WNW,299,4.0,10.0,79,0.00,,,0.01,0.000000,,2013-01-26 05:52:00,